GW7075 Weather Reports


time (UTC)temp
C
wind
direction
speed
KPH
gust
KPH
rain 1hr
cm
rain 24hr
cm
rain mn
cm
humidity
%
barometer
mb
20260509124420 21 306 6.4 11.3 0.00 0.00 0.00 89 1009.7
20260509123917 21 312 4.8 6.4 0.00 0.00 0.00 90 1009.8
20260509123414 20 316 4.8 4.8 0.00 0.00 0.00 90 1009.8
20260509122910 20 298 3.2 4.8 0.00 0.00 0.00 90 1009.8
20260509122407 20 287 0.0 1.6 0.00 0.00 0.00 90 1009.7
20260509121904 20 282 1.6 4.8 0.00 0.00 0.00 90 1009.8
20260509121401 20 320 3.2 4.8 0.00 0.00 0.00 91 1010.0
20260509120859 20 267 4.8 4.8 0.00 0.00 0.00 90 1009.7
20260509120356 20 236 0.0 1.6 0.00 0.00 0.00 90 1009.8
20260509115854 20 263 1.6 3.2 0.00 0.00 0.00 90 1009.8
20260509115351 20 273 3.2 4.8 0.00 0.00 0.00 89 1009.6
20260509114849 20 302 3.2 9.7 0.00 0.00 0.00 89 1009.5
20260509114347 20 273 1.6 4.8 0.00 0.00 0.00 88 1009.5
20260509113846 20 260 1.6 3.2 0.00 0.00 0.00 86 1009.2
20260509113343 20 266 0.0 3.2 0.00 0.00 0.00 85 1009.4
20260509112840 20 249 0.0 0.0 0.00 0.00 0.00 85 1009.1
20260509112337 20 200 1.6 3.2 0.00 0.00 0.00 86 1009.0
20260509111834 20 163 1.6 0.0 0.00 0.00 0.00 88 1008.9
20260509111331 20 204 0.0 0.0 0.00 0.00 0.00 89 1008.5
20260509110829 21 208 3.2 3.2 0.00 0.00 0.00 89 1008.5
20260509110324 21 187 0.0 1.6 0.00 0.00 0.00 88 1008.1
20260509105823 21 220 0.0 1.6 0.00 0.00 0.00 89 1008.2
20260509105321 21 207 0.0 0.0 0.00 0.00 0.00 89 1008.1
20260509104817 21 202 0.0 4.8 0.00 0.00 0.00 90 1008.3
20260509104314 21 191 0.0 3.2 0.00 0.00 0.00 90 1008.2
20260509103812 20 160 0.0 1.6 0.00 0.00 0.00 91 1007.9
20260509103309 20 160 1.6 1.6 0.00 0.00 0.00 91 1008.1
20260509102807 20 160 1.6 1.6 0.00 0.00 0.00 91 1008.0
20260509102306 20 160 0.0 0.0 0.00 0.00 0.00 91 1007.8
20260509101800 20 160 0.0 1.6 0.00 0.00 0.00 90 1007.9
20260509101256 21 170 0.0 1.6 0.00 0.00 0.00 90 1007.9
20260509100754 21 170 3.2 1.6 0.00 0.00 0.00 90 1007.9
20260509100251 21 170 0.0 0.0 0.00 0.00 0.00 90 1007.9
20260509095747 21 170 0.0 0.0 0.00 0.00 0.00 90 1008.0
20260509095245 21 170 1.6 1.6 0.00 0.00 0.00 89 1007.6
20260509094742 21 170 1.6 1.6 0.00 0.00 0.00 89 1007.5
20260509094239 21 170 0.0 0.0 0.00 0.00 0.00 89 1007.7
20260509093737 21 170 0.0 1.6 0.00 0.00 0.00 89 1007.6
20260509093234 21 157 3.2 6.4 0.00 0.00 0.00 88 1007.5
20260509092732 21 180 1.6 1.6 0.00 0.00 0.00 88 1007.5
20260509092230 21 150 3.2 3.2 0.00 0.00 0.00 88 1007.5
20260509091728 21 269 0.0 3.2 0.00 0.00 0.00 88 1007.8
20260509091223 21 282 1.6 3.2 0.00 0.00 0.00 88 1007.9
20260509090721 21 233 0.0 1.6 0.00 0.00 0.00 87 1007.9
20260509090218 21 208 0.0 6.4 0.00 0.00 0.00 87 1007.3
20260509085716 21 167 4.8 6.4 0.00 0.00 0.00 87 1006.6
20260509085213 21 133 4.8 14.5 0.00 0.00 0.00 87 1006.4
20260509084709 21 152 9.7 12.9 0.00 0.00 0.00 87 1005.9
20260509084206 21 181 6.4 12.9 0.00 0.00 0.00 87 1005.9
20260509083704 21 179 9.7 14.5 0.00 0.00 0.00 87 1005.7
20260509083200 21 178 6.4 12.9 0.00 0.00 0.00 87 1006.1
20260509082657 21 195 6.4 14.5 0.00 0.00 0.00 86 1006.4
20260509082154 21 131 6.4 16.1 0.00 0.00 0.00 86 1006.7
20260509081651 21 191 8.0 12.9 0.00 0.00 0.00 86 1006.8
20260509081148 21 182 9.7 12.9 0.00 0.00 0.00 86 1007.2
20260509080646 21 160 9.7 12.9 0.00 0.00 0.00 86 1007.4
20260509080144 21 164 6.4 14.5 0.00 0.00 0.00 86 1007.4
20260509075642 21 180 4.8 11.3 0.00 0.00 0.00 86 1008.0
20260509075139 21 176 4.8 6.4 0.00 0.00 0.00 86 1008.2
20260509074636 21 219 6.4 11.3 0.00 0.00 0.00 86 1008.8
20260509074132 21 145 8.0 11.3 0.00 0.00 0.00 86 1008.5
20260509073629 21 179 4.8 11.3 0.00 0.00 0.00 85 1008.5
20260509073125 21 199 3.2 6.4 0.00 0.00 0.00 86 1009.1
20260509072622 21 182 3.2 6.4 0.00 0.00 0.00 86 1009.3
20260509072119 21 169 6.4 6.4 0.00 0.00 0.00 86 1009.5
20260509071616 21 177 3.2 6.4 0.00 0.00 0.00 86 1009.6
20260509071113 21 178 3.2 6.4 0.00 0.00 0.00 86 1009.6
20260509070610 21 201 4.8 6.4 0.00 0.00 0.00 86 1009.8
20260509070106 21 139 4.8 6.4 0.00 0.00 0.00 85 1010.0
20260509065602 21 189 4.8 4.8 0.00 0.00 0.00 85 1010.0
20260509065058 21 222 1.6 3.2 0.00 0.00 0.00 85 1010.3
20260509064556 21 204 0.0 3.2 0.00 0.00 0.00 85 1010.0
20260509064054 21 221 0.0 3.2 0.00 0.00 0.00 85 1009.9
20260509063549 21 208 1.6 1.6 0.00 0.00 0.00 85 1010.0
20260509063047 21 220 3.2 4.8 0.00 0.00 0.00 85 1009.9
20260509062544 21 204 1.6 4.8 0.00 0.00 0.00 85 1009.6
20260509062041 21 194 3.2 4.8 0.00 0.00 0.00 85 1009.4
20260509061538 21 167 4.8 4.8 0.00 0.00 0.00 85 1009.7
20260509061035 21 204 1.6 4.8 0.00 0.00 0.00 84 1009.6
20260509060533 21 198 0.0 4.8 0.00 0.00 0.00 84 1009.6
20260509060029 21 178 4.8 4.8 0.00 0.00 0.00 85 1009.7
20260509055524 21 187 1.6 3.2 0.00 0.00 0.00 85 1009.7
20260509055020 21 212 1.6 1.6 0.00 0.00 0.00 84 1010.1
20260509054517 21 213 0.0 0.0 0.00 0.00 0.00 84 1010.3
20260509054015 21 213 0.0 0.0 0.00 0.00 0.00 83 1010.5
20260509053513 21 213 0.0 1.6 0.00 0.00 0.00 83 1010.6
20260509053010 21 200 1.6 3.2 0.00 0.00 0.00 83 1010.4
20260509052508 22 222 1.6 1.6 0.00 0.00 0.00 82 1010.6
20260509052006 22 325 0.0 1.6 0.00 0.00 0.00 81 1010.7
20260509051503 22 305 3.2 4.8 0.00 0.00 0.00 81 1010.9
20260509051000 22 303 4.8 6.4 0.00 0.00 0.00 81 1011.1
20260509050456 22 322 4.8 6.4 0.00 0.00 0.00 80 1010.7
20260509045953 22 241 1.6 1.6 0.00 0.25 0.25 80 1009.8
20260509045451 22 205 1.6 4.8 0.00 0.25 0.25 80 1009.7
20260509044947 22 187 3.2 3.2 0.00 0.25 0.25 80 1009.6
20260509044445 22 220 3.2 6.4 0.00 0.25 0.25 80 1009.6
20260509043942 22 182 3.2 4.8 0.00 0.25 0.25 79 1009.4
20260509043438 22 175 3.2 6.4 0.00 0.25 0.25 79 1009.9
20260509042933 22 132 4.8 4.8 0.00 0.25 0.25 78 1009.8
20260509042431 22 197 0.0 1.6 0.00 0.25 0.25 78 1009.7
20260509041927 22 167 4.8 9.7 0.00 0.25 0.25 78 1009.4
20260509041424 22 162 3.2 4.8 0.00 0.25 0.25 78 1009.6
20260509040922 22 174 4.8 6.4 0.00 0.25 0.25 78 1009.3
20260509040420 22 189 4.8 6.4 0.00 0.25 0.25 78 1009.4
20260509035916 22 139 1.6 4.8 0.00 0.25 0.25 77 1009.3
20260509035413 22 164 4.8 4.8 0.00 0.25 0.25 77 1009.2
20260509034909 22 184 3.2 4.8 0.00 0.25 0.25 77 1009.2
20260509034408 23 161 3.2 3.2 0.00 0.25 0.25 77 1009.5
20260509033904 23 315 0.0 1.6 0.00 0.25 0.25 77 1010.2
20260509033401 23 313 0.0 1.6 0.00 0.25 0.25 77 1010.0
20260509032858 22 324 0.0 3.2 0.00 0.25 0.25 76 1010.4
20260509032355 22 265 1.6 1.6 0.00 0.25 0.25 77 1009.8
20260509031853 22 248 1.6 1.6 0.00 0.25 0.25 77 1009.9
20260509031350 22 163 0.0 0.0 0.00 0.25 0.25 77 1009.7
20260509030848 22 159 0.0 1.6 0.00 0.25 0.25 77 1009.6
20260509030345 22 159 0.0 1.6 0.00 0.25 0.25 77 1009.5
20260509025842 22 159 0.0 0.0 0.00 0.25 0.25 77 1009.6
20260509025337 22 179 0.0 0.0 0.00 0.25 0.25 77 1009.1
20260509024833 22 210 1.6 1.6 0.00 0.25 0.25 77 1009.0
20260509024330 22 187 1.6 3.2 0.00 0.25 0.25 77 1008.6
20260509023827 22 132 3.2 9.7 0.00 0.25 0.25 76 1008.5
20260509023324 22 170 4.8 11.3 0.00 0.25 0.25 76 1008.4
20260509022821 22 189 1.6 11.3 0.00 0.25 0.25 76 1008.4
20260509022318 22 141 6.4 9.7 0.00 0.25 0.25 76 1008.3
20260509021814 22 170 4.8 4.8 0.00 0.25 0.25 76 1008.1
20260509021312 22 192 1.6 6.4 0.00 0.25 0.25 76 1008.2
20260509020809 22 184 4.8 9.7 0.00 0.25 0.25 76 1007.9
20260509020307 23 183 4.8 11.3 0.00 0.25 0.25 76 1008.1
20260509015805 23 190 1.6 9.7 0.00 0.25 0.25 75 1007.8
20260509015306 23 184 6.4 14.5 0.00 0.25 0.25 75 1008.0
20260509014758 23 203 6.4 6.4 0.00 0.25 0.25 75 1007.9
20260509014256 23 179 3.2 11.3 0.00 0.25 0.25 75 1008.0
20260509013752 23 155 4.8 4.8 0.00 0.25 0.25 74 1008.2
20260509013248 23 173 6.4 9.7 0.00 0.25 0.25 74 1008.3
20260509012745 23 177 3.2 6.4 0.00 0.25 0.25 74 1007.9
20260509012242 23 194 3.2 3.2 0.00 0.25 0.25 74 1008.0
20260509011739 23 174 4.8 4.8 0.00 0.25 0.25 73 1008.1
20260509011237 23 199 1.6 3.2 0.00 0.25 0.25 73 1008.2
20260509010734 23 218 1.6 4.8 0.00 0.25 0.25 73 1007.9
20260509010231 23 163 3.2 6.4 0.00 0.25 0.25 73 1007.9
20260509005729 23 183 1.6 3.2 0.00 0.25 0.25 73 1007.8
20260509005226 23 155 6.4 6.4 0.00 0.25 0.25 73 1007.7
20260509004725 23 165 3.2 4.8 0.00 0.25 0.25 72 1007.7
20260509004223 23 177 6.4 9.7 0.00 0.25 0.25 72 1007.5
20260509003721 23 123 8.0 11.3 0.00 0.25 0.25 72 1007.6
20260509003219 23 181 4.8 16.1 0.00 0.25 0.25 72 1007.5
20260509002715 23 142 3.2 9.7 0.00 0.25 0.25 71 1007.3
20260509002213 23 181 1.6 11.3 0.00 0.25 0.25 71 1007.4
20260509001711 23 171 6.4 14.5 0.00 0.25 0.25 71 1007.1
20260509001206 23 165 4.8 11.3 0.00 0.25 0.25 70 1007.3
20260509000705 23 154 9.7 14.5 0.00 0.25 0.25 70 1007.2
20260509000204 23 186 12.9 14.5 0.00 0.25 0.25 69 1007.4
20260508235658 24 156 4.8 12.9 0.00 0.25 0.25 69 1007.6
20260508235155 23 140 3.2 6.4 0.00 0.25 0.25 68 1007.9
20260508234653 24 172 8.0 9.7 0.00 0.25 0.25 68 1007.9
20260508234149 24 175 4.8 4.8 0.00 0.25 0.25 68 1008.0
20260508233648 24 171 3.2 9.7 0.00 0.25 0.25 68 1007.8
20260508233145 24 133 4.8 11.3 0.00 0.25 0.25 67 1008.0
20260508232642 24 191 1.6 12.9 0.00 0.25 0.25 67 1008.0
20260508232139 24 192 8.0 9.7 0.00 0.25 0.25 65 1007.9
20260508231637 25 158 4.8 6.4 0.00 0.25 0.25 65 1007.9
20260508231133 25 229 4.8 11.3 0.00 0.25 0.25 65 1008.1
20260508230630 25 126 6.4 11.3 0.00 0.25 0.25 65 1008.1
20260508230126 25 191 4.8 11.3 0.00 0.25 0.25 65 1008.0
20260508225625 25 201 1.6 14.5 0.00 0.25 0.25 64 1008.0
20260508225120 25 184 3.2 12.9 0.00 0.25 0.25 65 1008.0
20260508224619 25 211 3.2 4.8 0.00 0.25 0.25 65 1008.0
20260508224116 25 171 6.4 9.7 0.00 0.25 0.25 65 1007.9
20260508223614 25 197 6.4 11.3 0.00 0.25 0.25 65 1008.1
20260508223110 25 164 11.3 14.5 0.00 0.25 0.25 64 1007.9
20260508222608 25 179 9.7 12.9 0.00 0.25 0.25 63 1007.9
20260508222105 25 171 9.7 12.9 0.00 0.25 0.25 65 1008.1
20260508221601 25 199 8.0 14.5 0.00 0.25 0.25 63 1008.0
20260508221057 25 223 6.4 17.7 0.00 0.25 0.25 63 1008.0
20260508220553 25 205 8.0 14.5 0.00 0.25 0.25 62 1007.9
20260508220049 25 187 6.4 12.9 0.00 0.25 0.25 63 1007.9
20260508215547 25 162 6.4 16.1 0.00 0.25 0.25 63 1007.8
20260508215044 25 168 6.4 11.3 0.00 0.25 0.25 61 1007.9
20260508214541 25 180 4.8 14.5 0.00 0.25 0.25 62 1007.8
20260508214037 25 177 9.7 14.5 0.00 0.25 0.25 63 1008.0
20260508213535 25 146 8.0 12.9 0.00 0.25 0.25 63 1008.2
20260508213030 25 147 3.2 9.7 0.00 0.25 0.25 62 1008.3
20260508212527 25 176 4.8 11.3 0.00 0.25 0.25 63 1008.3
20260508212023 25 178 6.4 9.7 0.00 0.25 0.25 62 1008.5
20260508211519 25 178 4.8 11.3 0.00 0.25 0.25 63 1008.2
20260508211016 24 208 6.4 11.3 0.00 0.25 0.25 63 1008.2
20260508210512 24 192 6.4 12.9 0.00 0.25 0.25 64 1008.1
20260508210010 23 168 6.4 9.7 0.00 0.25 0.25 65 1008.4
20260508205507 23 160 6.4 11.3 0.00 0.25 0.25 66 1008.8
20260508205003 23 179 3.2 9.7 0.00 0.25 0.25 68 1009.1
20260508204500 23 155 6.4 6.4 0.00 0.25 0.25 70 1009.3
20260508203955 23 170 6.4 11.3 0.00 0.25 0.25 67 1009.5
20260508203451 23 184 4.8 9.7 0.00 0.25 0.25 66 1009.8
20260508202947 23 197 4.8 9.7 0.00 0.25 0.25 67 1010.1
20260508202445 23 161 9.7 14.5 0.00 0.25 0.25 66 1010.5
20260508201942 23 127 8.0 12.9 0.00 0.25 0.25 66 1010.3
20260508201438 23 214 8.0 11.3 0.00 0.25 0.25 65 1010.2
20260508200935 23 163 6.4 11.3 0.00 0.25 0.25 65 1010.4
20260508200432 23 189 4.8 11.3 0.00 0.25 0.25 65 1010.2
20260508195927 23 217 4.8 11.3 0.00 0.25 0.25 64 1010.3
20260508195425 24 189 4.8 4.8 0.00 0.25 0.25 63 1010.2
20260508194920 24 182 1.6 9.7 0.00 0.25 0.25 63 1010.3
20260508194418 24 207 4.8 4.8 0.00 0.25 0.25 63 1010.2
20260508193914 24 211 6.4 9.7 0.00 0.25 0.25 64 1010.2
20260508193411 24 189 12.9 14.5 0.00 0.25 0.25 64 1010.4
20260508192908 24 205 3.2 9.7 0.00 0.25 0.25 64 1010.2
20260508192405 24 232 6.4 11.3 0.00 0.25 0.25 64 1010.6
20260508191902 25 169 6.4 9.7 0.00 0.25 0.25 63 1010.3
20260508191359 25 197 3.2 11.3 0.00 0.25 0.25 63 1010.2
20260508190856 25 223 4.8 6.4 0.00 0.25 0.25 62 1010.4
20260508190353 25 187 6.4 9.7 0.00 0.25 0.25 61 1010.4
20260508185849 25 209 6.4 14.5 0.00 0.25 0.25 61 1010.5
20260508185347 26 191 6.4 6.4 0.00 0.25 0.25 59 1010.3
20260508184844 25 232 4.8 3.2 0.00 0.25 0.25 59 1010.4
20260508184341 25 207 8.0 12.9 0.00 0.25 0.25 60 1010.4
20260508183838 25 234 3.2 4.8 0.00 0.25 0.25 58 1010.7
20260508183334 25 187 4.8 9.7 0.00 0.25 0.25 60 1010.7
20260508182830 25 225 4.8 9.7 0.00 0.25 0.25 60 1010.7
20260508182327 25 152 6.4 11.3 0.00 0.25 0.25 60 1010.5
20260508181822 25 249 8.0 11.3 0.00 0.25 0.25 60 1011.0
20260508181320 25 177 6.4 6.4 0.00 0.25 0.25 61 1011.1
20260508180817 25 192 4.8 4.8 0.00 0.25 0.25 60 1011.2
20260508180314 25 125 9.7 12.9 0.00 0.25 0.25 60 1011.3
20260508175810 25 194 6.4 6.4 0.00 0.25 0.25 59 1011.3
20260508175306 25 191 8.0 11.3 0.00 0.25 0.25 60 1011.6
20260508174805 25 191 3.2 4.8 0.00 0.25 0.25 58 1011.5
20260508174302 24 180 8.0 11.3 0.00 0.25 0.25 60 1011.6
20260508173758 24 116 6.4 9.7 0.00 0.25 0.25 59 1011.5
20260508173254 24 173 11.3 12.9 0.00 0.25 0.25 60 1011.5
20260508172751 24 115 3.2 4.8 0.00 0.25 0.25 60 1011.7
20260508172248 24 189 3.2 9.7 0.00 0.25 0.25 60 1011.5
20260508171744 23 208 3.2 4.8 0.00 0.25 0.25 61 1011.8
20260508171240 23 147 8.0 14.5 0.00 0.25 0.25 60 1011.7
20260508170737 23 191 8.0 9.7 0.00 0.25 0.25 62 1012.1
20260508170235 23 176 1.6 9.7 0.00 0.25 0.25 61 1012.2
20260508165732 22 144 6.4 9.7 0.00 0.25 0.25 62 1012.6
20260508165229 22 164 6.4 6.4 0.00 0.25 0.25 61 1012.5
20260508164725 22 213 6.4 11.3 0.00 0.25 0.25 61 1012.4
20260508164222 22 173 6.4 9.7 0.00 0.25 0.25 61 1012.8
20260508163720 22 198 3.2 11.3 0.00 0.25 0.25 61 1012.9
20260508163217 22 51 4.8 4.8 0.00 0.25 0.25 62 1012.9
20260508162713 21 204 4.8 6.4 0.00 0.25 0.25 63 1013.2
20260508162210 21 184 1.6 9.7 0.00 0.25 0.25 64 1013.2
20260508161708 21 193 3.2 4.8 0.00 0.25 0.25 63 1013.0
20260508161205 21 200 8.0 9.7 0.00 0.25 0.25 62 1013.2
20260508160703 21 179 3.2 14.5 0.00 0.25 0.25 64 1013.4
20260508160200 21 185 3.2 14.5 0.00 0.25 0.25 65 1013.2
20260508155657 21 177 8.0 11.3 0.00 0.25 0.25 63 1013.4
20260508155154 20 146 4.8 6.4 0.00 0.25 0.25 65 1013.4
20260508154651 20 165 6.4 9.7 0.00 0.25 0.25 64 1013.4
20260508154148 20 175 6.4 11.3 0.00 0.25 0.25 65 1013.5
20260508153644 20 158 8.0 12.9 0.00 0.25 0.25 64 1013.7
20260508153141 20 151 4.8 11.3 0.00 0.25 0.25 65 1013.7
20260508152638 20 176 6.4 9.7 0.00 0.25 0.25 64 1013.8
20260508152133 20 195 4.8 11.3 0.00 0.25 0.25 64 1013.8
20260508151630 20 208 4.8 12.9 0.00 0.25 0.25 65 1013.8
20260508151127 20 169 6.4 9.7 0.00 0.25 0.25 64 1013.8
20260508150624 20 190 6.4 6.4 0.00 0.25 0.25 63 1013.7
20260508150121 20 164 3.2 6.4 0.00 0.25 0.25 66 1013.6
20260508145617 20 164 3.2 9.7 0.00 0.25 0.25 67 1013.8
20260508145113 20 166 3.2 4.8 0.00 0.25 0.25 68 1013.7
20260508144611 19 197 3.2 4.8 0.00 0.25 0.25 68 1013.9
20260508144108 19 189 4.8 6.4 0.00 0.25 0.25 69 1013.9
20260508143606 19 194 4.8 6.4 0.00 0.25 0.25 70 1014.0
20260508143102 18 176 3.2 4.8 0.00 0.25 0.25 69 1013.9
20260508142559 18 164 1.6 6.4 0.00 0.25 0.25 71 1014.1
20260508142055 18 193 4.8 9.7 0.00 0.25 0.25 71 1014.0
20260508141552 18 179 6.4 9.7 0.00 0.25 0.25 70 1013.9
20260508141050 19 173 4.8 6.4 0.00 0.25 0.25 70 1014.1
20260508140547 19 156 4.8 9.7 0.00 0.25 0.25 70 1014.0
20260508140043 18 189 0.0 6.4 0.00 0.25 0.25 72 1014.2
20260508135539 18 196 3.2 4.8 0.00 0.25 0.25 70 1014.2
20260508135035 18 207 4.8 6.4 0.00 0.25 0.25 71 1014.2
20260508134532 18 184 4.8 11.3 0.00 0.25 0.25 73 1014.1
20260508134029 18 193 3.2 11.3 0.00 0.25 0.25 74 1013.8
20260508133526 18 167 1.6 4.8 0.00 0.25 0.25 77 1013.7
20260508133023 18 183 3.2 6.4 0.00 0.25 0.25 77 1013.8
20260508132521 18 209 4.8 4.8 0.00 0.25 0.25 78 1014.0
20260508132018 -17 201 3.2 3.2 0.00 0.25 0.25 1014.0
20260508131513 17 144 3.2 3.2 0.00 0.25 0.25 81 1014.1
20260508131010 17 157 1.6 3.2 0.00 0.25 0.25 84 1013.9
20260508130507 16 192 3.2 3.2 0.00 0.25 0.25 86 1014.1
20260508130003 16 224 0.0 0.0 0.00 0.25 0.25 87 1014.2
20260508125459 16 212 0.0 0.0 0.00 0.25 0.25 87 1014.1
20260508124957 16 186 3.2 4.8 0.00 0.25 0.25 88 1014.0